Location: Gloden
(48.4833°N, 15.3167°E)
Time: 07:54:52
(UTC+00:00)

Meteor 2-4 Rocket - Pass Details

Date: 15 December 2019
Orbit: 798 x 909 km, 81.2° (Epoch: 24 January)

Event Time Altitude Azimuth Distance (km) Brightness Sun altitude
Exits shadow 05:16:15 10° 332° (NNW) 2,437 5.7 -13.6°
Reaches altitude 10° 05:16:17 10° 332° (NNW) 2,429 5.7 -13.6°
Maximum altitude 05:21:05 33° 270° (W) 1,350 4.3 -12.9°
Drops below altitude 10° 05:25:48 10° 208° (SSW) 2,374 6.0 -12.1°
Sets 05:28:21 0° 199° (SSW) 3,294 6.8 -11.7°
